Time,TemperatureF,DewpointF,PressureIn,WindDirection,WindDirectionDegrees,WindSpeedMPH,WindSpeedGustMPH,Humidity,HourlyPrecipIn,Conditions,Clouds,dailyrainin,SolarRadiationWatts/m^2,SoftwareType,DateUTC
2013-07-10 00:01:00,60.4,-99.9,30.08,NNW,348,0.0,2.1,85,0.00,,,0.00,0,,2013-07-10 05:01:00,
2013-07-10 00:11:00,60.1,-99.9,30.08,North,349,1.0,3.8,86,0.00,,,0.00,0,,2013-07-10 05:11:00,
2013-07-10 00:21:00,59.7,-99.9,30.08,North,10,0.0,2.1,87,0.00,,,0.00,0,,2013-07-10 05:21:00,
2013-07-10 00:31:00,59.8,-99.9,30.08,NW,323,2.0,5.4,87,0.00,,,0.00,0,,2013-07-10 05:31:00,
2013-07-10 00:41:00,59.7,-99.9,30.08,NW,322,0.0,2.1,87,0.00,,,0.00,0,,2013-07-10 05:41:00,
2013-07-10 00:51:00,59.9,-99.9,30.08,NNW,348,0.0,2.1,86,0.00,,,0.00,0,,2013-07-10 05:51:00,
2013-07-10 01:01:00,59.4,-99.9,30.08,NE,48,0.0,0.0,87,0.00,,,0.00,0,,2013-07-10 06:01:00,
2013-07-10 01:11:00,59.0,-99.9,30.08,NNW,328,0.0,2.1,88,0.00,,,0.00,0,,2013-07-10 06:11:00,
2013-07-10 01:21:00,58.9,-99.9,30.08,North,351,0.0,2.1,88,0.00,,,0.00,0,,2013-07-10 06:21:00,
2013-07-10 01:31:00,58.6,-99.9,30.08,WSW,247,0.0,0.0,89,0.00,,,0.00,0,,2013-07-10 06:31:00,
2013-07-10 01:41:00,59.4,-99.9,30.08,NW,306,2.0,3.8,87,0.00,,,0.00,0,,2013-07-10 06:41:00,
2013-07-10 01:51:00,59.3,-99.9,30.08,SW,225,1.0,3.8,87,0.00,,,0.00,0,,2013-07-10 06:51:00,
2013-07-10 02:01:00,58.7,-99.9,30.09,WSW,240,0.0,0.0,88,0.00,,,0.00,0,,2013-07-10 07:01:00,
2013-07-10 02:11:00,58.6,-99.9,30.08,NW,323,0.0,0.0,89,0.00,,,0.00,0,,2013-07-10 07:11:00,
2013-07-10 02:21:00,58.3,-99.9,30.08,WSW,251,1.0,3.8,89,0.00,,,0.00,0,,2013-07-10 07:21:00,
2013-07-10 02:31:00,58.2,-99.9,30.09,WSW,244,0.0,2.1,88,0.00,,,0.00,0,,2013-07-10 07:31:00,
2013-07-10 02:41:00,58.2,-99.9,30.09,SW,224,0.0,0.0,89,0.00,,,0.00,0,,2013-07-10 07:41:00,
2013-07-10 02:51:00,57.8,-99.9,30.09,SSW,211,0.0,0.0,89,0.00,,,0.00,0,,2013-07-10 07:51:00,
2013-07-10 03:01:00,57.1,-99.9,30.09,SSE,166,0.0,0.0,91,0.00,,,0.00,0,,2013-07-10 08:01:00,
2013-07-10 03:11:00,56.9,-99.9,30.09,East,93,0.0,0.0,91,0.00,,,0.00,0,,2013-07-10 08:11:00,
2013-07-10 03:21:00,56.8,-99.9,30.09,South,172,1.0,3.8,92,0.00,,,0.00,0,,2013-07-10 08:21:00,
2013-07-10 03:31:00,56.5,-99.9,30.09,SE,126,0.0,0.0,92,0.00,,,0.00,0,,2013-07-10 08:31:00,
2013-07-10 03:41:00,56.4,-99.9,30.09,SE,130,0.0,0.0,92,0.00,,,0.00,0,,2013-07-10 08:41:00,
2013-07-10 03:51:00,56.6,-99.9,30.09,SSE,155,0.0,2.1,91,0.00,,,0.00,0,,2013-07-10 08:51:00,
2013-07-10 04:01:00,56.6,-99.9,30.09,SE,126,0.0,0.0,93,0.00,,,0.00,0,,2013-07-10 09:01:00,
2013-07-10 04:11:00,56.4,-99.9,30.10,SE,126,0.0,0.0,92,0.00,,,0.00,0,,2013-07-10 09:11:00,
2013-07-10 04:21:00,56.1,-99.9,30.10,SSE,165,0.0,0.0,94,0.00,,,0.00,0,,2013-07-10 09:21:00,
2013-07-10 04:31:00,56.7,-99.9,30.10,SSW,204,0.0,0.0,93,0.00,,,0.00,0,,2013-07-10 09:31:00,
2013-07-10 04:41:00,56.8,-99.9,30.10,ENE,69,0.0,0.0,92,0.00,,,0.00,0,,2013-07-10 09:41:00,
2013-07-10 04:51:00,56.2,-99.9,30.10,SE,126,0.0,0.0,93,0.00,,,0.00,0,,2013-07-10 09:51:00,
2013-07-10 05:01:00,55.9,-99.9,30.10,SE,131,0.0,0.0,94,0.00,,,0.00,0,,2013-07-10 10:01:00,
2013-07-10 05:11:00,55.9,-99.9,30.10,SE,140,0.0,0.0,94,0.00,,,0.00,0.01,,2013-07-10 10:11:00,
2013-07-10 05:21:00,55.6,-99.9,30.10,SE,124,0.0,0.0,94,0.00,,,0.00,0.203,,2013-07-10 10:21:00,
2013-07-10 05:31:00,55.9,-99.9,30.10,ESE,118,0.0,0.0,94,0.00,,,0.00,0.62,,2013-07-10 10:31:00,
2013-07-10 05:41:00,55.7,-99.9,30.10,ESE,122,0.0,2.1,94,0.00,,,0.00,1.865,,2013-07-10 10:41:00,
2013-07-10 05:51:00,55.6,-99.9,30.10,ESE,109,0.0,0.0,94,0.00,,,0.00,3.92,,2013-07-10 10:51:00,
2013-07-10 06:01:00,56.5,-99.9,30.10,West,261,2.0,3.8,89,0.00,,,0.00,8.21,,2013-07-10 11:01:00,
2013-07-10 06:11:00,57.2,-99.9,30.10,West,267,1.0,5.4,86,0.00,,,0.00,15.03,,2013-07-10 11:11:00,
2013-07-10 06:21:00,57.6,-99.9,30.10,WNW,286,1.0,3.8,85,0.00,,,0.00,23.33,,2013-07-10 11:21:00,
2013-07-10 06:31:00,57.6,-99.9,30.10,West,272,1.0,3.8,85,0.00,,,0.00,32.32,,2013-07-10 11:31:00,
2013-07-10 06:41:00,57.9,-99.9,30.11,WNW,294,1.0,3.8,85,0.00,,,0.00,48.32,,2013-07-10 11:41:00,
2013-07-10 06:51:00,58.1,-99.9,30.11,SW,223,0.0,2.1,85,0.00,,,0.00,55.51,,2013-07-10 11:51:00,
2013-07-10 07:01:00,58.7,-99.9,30.11,West,268,2.0,5.4,83,0.00,,,0.00,120,,2013-07-10 12:01:00,
2013-07-10 07:11:00,59.5,-99.9,30.11,WSW,242,1.0,3.8,81,0.00,,,0.00,147.2,,2013-07-10 12:11:00,
2013-07-10 07:21:00,60.0,-99.9,30.11,WNW,286,4.0,5.4,80,0.00,,,0.00,177.4,,2013-07-10 12:21:00,
2013-07-10 07:31:00,60.5,-99.9,30.11,WSW,253,4.0,7.1,78,0.00,,,0.00,206.6,,2013-07-10 12:31:00,
2013-07-10 07:41:00,61.1,-99.9,30.11,WNW,283,3.0,3.8,76,0.00,,,0.00,235.9,,2013-07-10 12:41:00,
2013-07-10 07:51:00,62.0,-99.9,30.11,NNW,339,0.0,2.1,74,0.00,,,0.00,266.5,,2013-07-10 12:51:00,
2013-07-10 08:01:00,62.7,-99.9,30.11,West,259,3.0,3.8,73,0.00,,,0.00,296.4,,2013-07-10 13:01:00,
2013-07-10 08:11:00,63.3,-99.9,30.11,SW,229,1.0,3.8,73,0.00,,,0.00,328.4,,2013-07-10 13:11:00,
2013-07-10 08:21:00,63.7,-99.9,30.11,West,265,3.0,5.4,72,0.00,,,0.00,358.5,,2013-07-10 13:21:00,
2013-07-10 08:31:00,64.4,-99.9,30.11,WNW,290,5.0,7.1,71,0.00,,,0.00,390.3,,2013-07-10 13:31:00,
2013-07-10 08:41:00,66.5,-99.9,30.11,WNW,284,1.0,5.4,68,0.00,,,0.00,420.1,,2013-07-10 13:41:00,
2013-07-10 08:51:00,66.8,-99.9,30.11,NNW,334,3.0,7.1,67,0.00,,,0.00,450.8,,2013-07-10 13:51:00,
2013-07-10 09:01:00,67.3,-99.9,30.11,WNW,282,3.0,5.4,65,0.00,,,0.00,480.3,,2013-07-10 14:01:00,
2013-07-10 09:11:00,67.8,-99.9,30.11,NW,309,3.0,3.8,64,0.00,,,0.00,511.4,,2013-07-10 14:11:00,
2013-07-10 09:21:00,67.6,-99.9,30.11,WSW,239,5.0,8.8,65,0.00,,,0.00,536.4,,2013-07-10 14:21:00,
2013-07-10 09:31:00,68.0,-99.9,30.12,WSW,255,5.0,7.1,64,0.00,,,0.00,559.9,,2013-07-10 14:31:00,
2013-07-10 09:41:00,69.0,-99.9,30.11,WSW,252,5.0,8.8,63,0.00,,,0.00,592.4,,2013-07-10 14:41:00,
2013-07-10 09:51:00,68.6,-99.9,30.11,SW,232,5.0,7.1,67,0.00,,,0.00,614.6,,2013-07-10 14:51:00,
2013-07-10 10:01:00,69.5,-99.9,30.11,West,259,6.0,8.8,61,0.00,,,0.00,637,,2013-07-10 15:01:00,
2013-07-10 10:11:00,69.8,-99.9,30.12,WNW,287,6.0,8.8,60,0.00,,,0.00,661.2,,2013-07-10 15:11:00,
2013-07-10 10:21:00,70.3,-99.9,30.11,West,261,8.0,10.5,59,0.00,,,0.00,688.9,,2013-07-10 15:21:00,
2013-07-10 10:31:00,71.2,-99.9,30.11,WSW,257,7.0,10.5,56,0.00,,,0.00,711.1,,2013-07-10 15:31:00,
2013-07-10 10:41:00,70.8,-99.9,30.11,WSW,254,9.0,12.1,57,0.00,,,0.00,727.1,,2013-07-10 15:41:00,
2013-07-10 10:51:00,71.0,-99.9,30.12,WSW,258,9.0,13.8,52,0.00,,,0.00,746,,2013-07-10 15:51:00,
2013-07-10 11:01:00,71.4,-99.9,30.12,West,265,7.0,10.5,54,0.00,,,0.00,762.1,,2013-07-10 16:01:00,
2013-07-10 11:11:00,71.8,-99.9,30.12,WNW,303,7.0,8.8,53,0.00,,,0.00,783.5,,2013-07-10 16:11:00,
2013-07-10 11:21:00,72.2,-99.9,30.11,WSW,249,10.0,12.1,51,0.00,,,0.00,797.3,,2013-07-10 16:21:00,
2013-07-10 11:31:00,73.1,-99.9,30.11,SW,232,8.0,13.8,52,0.00,,,0.00,817,,2013-07-10 16:31:00,
2013-07-10 11:41:00,73.1,-99.9,30.11,WNW,285,8.0,12.1,48,0.00,,,0.00,829,,2013-07-10 16:41:00,
2013-07-10 11:51:00,73.3,-99.9,30.10,WSW,242,7.0,8.8,51,0.00,,,0.00,844,,2013-07-10 16:51:00,
2013-07-10 12:01:00,73.4,-99.9,30.10,SSW,209,3.0,5.4,51,0.00,,,0.00,853,,2013-07-10 17:01:00,
2013-07-10 12:11:00,74.5,-99.9,30.10,South,172,4.0,7.1,46,0.00,,,0.00,866,,2013-07-10 17:11:00,
2013-07-10 12:21:00,73.4,-99.9,30.10,WSW,237,8.0,12.1,48,0.00,,,0.00,875,,2013-07-10 17:21:00,
2013-07-10 12:31:00,74.5,-99.9,30.10,WSW,242,6.0,12.1,44,0.00,,,0.00,880,,2013-07-10 17:31:00,
2013-07-10 12:41:00,75.4,-99.9,30.10,SW,236,8.0,12.1,45,0.00,,,0.00,885,,2013-07-10 17:41:00,
2013-07-10 12:51:00,75.4,-99.9,30.10,WNW,283,6.0,8.8,41,0.00,,,0.00,885,,2013-07-10 17:51:00,
2013-07-10 13:01:00,75.2,-99.9,30.09,SW,233,11.0,15.5,43,0.00,,,0.00,896,,2013-07-10 18:01:00,
2013-07-10 13:11:00,75.2,-99.9,30.09,SW,236,9.0,13.8,45,0.00,,,0.00,889,,2013-07-10 18:11:00,
2013-07-10 13:21:00,75.9,-99.9,30.09,SW,226,5.0,8.8,43,0.00,,,0.00,893,,2013-07-10 18:21:00,
2013-07-10 13:31:00,76.4,-99.9,30.09,WSW,243,10.0,13.8,45,0.00,,,0.00,896,,2013-07-10 18:31:00,
2013-07-10 13:41:00,76.0,-99.9,30.08,WNW,283,7.0,12.1,40,0.00,,,0.00,887,,2013-07-10 18:41:00,
2013-07-10 13:51:00,76.7,-99.9,30.08,WSW,243,9.0,12.1,40,0.00,,,0.00,888,,2013-07-10 18:51:00,
2013-07-10 14:01:00,77.0,-99.9,30.08,WSW,246,8.0,10.5,41,0.00,,,0.00,880,,2013-07-10 19:01:00,
2013-07-10 14:11:00,77.8,-99.9,30.07,SSW,213,5.0,7.1,39,0.00,,,0.00,875,,2013-07-10 19:11:00,
2013-07-10 14:21:00,77.7,-99.9,30.07,SW,226,7.0,10.5,44,0.00,,,0.00,875,,2013-07-10 19:21:00,
2013-07-10 14:31:00,78.2,-99.9,30.06,SSW,201,6.0,8.8,45,0.00,,,0.00,857,,2013-07-10 19:31:00,
2013-07-10 14:41:00,77.7,-99.9,30.06,West,277,7.0,10.5,39,0.00,,,0.00,846,,2013-07-10 19:41:00,
2013-07-10 14:51:00,78.2,-99.9,30.06,SW,234,6.0,8.8,41,0.00,,,0.00,833,,2013-07-10 19:51:00,
2013-07-10 15:01:00,79.0,-99.9,30.06,SW,229,4.0,5.4,38,0.00,,,0.00,822,,2013-07-10 20:01:00,
2013-07-10 15:11:00,79.6,-99.9,30.05,WNW,282,6.0,12.1,36,0.00,,,0.00,805,,2013-07-10 20:11:00,
2013-07-10 15:21:00,78.8,-99.9,30.05,WSW,251,5.0,7.1,41,0.00,,,0.00,789.6,,2013-07-10 20:21:00,
2013-07-10 15:31:00,79.2,-99.9,30.05,SW,216,5.0,7.1,39,0.00,,,0.00,771.9,,2013-07-10 20:31:00,
2013-07-10 15:41:00,79.1,-99.9,30.05,West,271,6.0,8.8,36,0.00,,,0.00,752.6,,2013-07-10 20:41:00,
2013-07-10 15:51:00,79.4,-99.9,30.04,SW,232,4.0,7.1,38,0.00,,,0.00,732.5,,2013-07-10 20:51:00,
2013-07-10 16:01:00,79.3,-99.9,30.04,SW,232,7.0,10.5,38,0.00,,,0.00,712.9,,2013-07-10 21:01:00,
2013-07-10 16:11:00,80.7,-99.9,30.04,WSW,240,2.0,3.8,41,0.00,,,0.00,686.5,,2013-07-10 21:11:00,
2013-07-10 16:21:00,79.5,-99.9,30.04,WNW,290,4.0,5.4,35,0.00,,,0.00,665.6,,2013-07-10 21:21:00,
2013-07-10 16:31:00,79.8,-99.9,30.03,WNW,287,5.0,7.1,34,0.00,,,0.00,637.5,,2013-07-10 21:31:00,
2013-07-10 16:41:00,80.4,-99.9,30.03,WNW,294,2.0,3.8,34,0.00,,,0.00,615.4,,2013-07-10 21:41:00,
2013-07-10 16:51:00,80.4,-99.9,30.03,West,273,5.0,7.1,33,0.00,,,0.00,588.5,,2013-07-10 21:51:00,
2013-07-10 17:01:00,80.6,-99.9,30.02,NNW,331,4.0,10.5,33,0.00,,,0.00,564,,2013-07-10 22:01:00,
2013-07-10 17:11:00,80.6,-99.9,30.02,WNW,289,3.0,5.4,34,0.00,,,0.00,540.2,,2013-07-10 22:11:00,
2013-07-10 17:21:00,80.0,-99.9,30.02,SW,228,2.0,3.8,33,0.00,,,0.00,516,,2013-07-10 22:21:00,
2013-07-10 17:31:00,81.0,-99.9,30.02,SW,216,2.0,3.8,34,0.00,,,0.00,490.2,,2013-07-10 22:31:00,
2013-07-10 17:41:00,80.8,-99.9,30.02,WNW,300,5.0,7.1,35,0.00,,,0.00,462.3,,2013-07-10 22:41:00,
2013-07-10 17:51:00,81.0,-99.9,30.01,North,350,1.0,3.8,34,0.00,,,0.00,436,,2013-07-10 22:51:00,
2013-07-10 18:01:00,80.9,-99.9,30.01,WSW,253,4.0,5.4,32,0.00,,,0.00,362.4,,2013-07-10 23:01:00,
2013-07-10 18:11:00,82.0,-99.9,30.01,WNW,288,4.0,5.4,31,0.00,,,0.00,323,,2013-07-10 23:11:00,
2013-07-10 18:21:00,81.0,-99.9,30.01,WNW,295,4.0,7.1,32,0.00,,,0.00,355.4,,2013-07-10 23:21:00,
2013-07-10 18:31:00,81.3,-99.9,30.01,SW,234,1.0,3.8,32,0.00,,,0.00,327,,2013-07-10 23:31:00,
2013-07-10 18:41:00,81.0,-99.9,30.01,North,9,3.0,5.4,32,0.00,,,0.00,300.9,,2013-07-10 23:41:00,
2013-07-10 18:51:00,81.7,-99.9,30.01,West,261,2.0,3.8,33,0.00,,,0.00,273.4,,2013-07-10 23:51:00,
2013-07-10 19:01:00,81.6,-99.9,30.01,NNW,337,1.0,3.8,34,0.00,,,0.00,248.9,,2013-07-11 00:01:00,
2013-07-10 19:11:00,81.4,-99.9,30.01,WNW,287,1.0,3.8,31,0.00,,,0.00,223.7,,2013-07-11 00:11:00,
2013-07-10 19:21:00,81.6,-99.9,30.01,West,280,1.0,3.8,31,0.00,,,0.00,199,,2013-07-11 00:21:00,
2013-07-10 19:31:00,81.2,-99.9,30.01,West,266,2.0,3.8,32,0.00,,,0.00,176.2,,2013-07-11 00:31:00,
2013-07-10 19:41:00,82.5,-99.9,30.01,South,183,0.0,0.0,33,0.00,,,0.00,153.5,,2013-07-11 00:41:00,
2013-07-10 19:51:00,83.4,-99.9,30.01,SSW,211,0.0,0.0,35,0.00,,,0.00,131.6,,2013-07-11 00:51:00,
2013-07-10 20:01:00,82.1,-99.9,30.00,SSE,147,0.0,0.0,36,0.00,,,0.00,110.5,,2013-07-11 01:01:00,
2013-07-10 20:11:00,81.6,-99.9,30.01,SSW,210,0.0,0.0,39,0.00,,,0.00,86.1,,2013-07-11 01:11:00,
2013-07-10 20:21:00,81.0,-99.9,30.01,South,173,0.0,0.0,40,0.00,,,0.00,63.98,,2013-07-11 01:21:00,
2013-07-10 20:31:00,79.4,-99.9,30.01,SSE,149,0.0,0.0,45,0.00,,,0.00,47.27,,2013-07-11 01:31:00,
2013-07-10 20:41:00,76.7,-99.9,30.01,SSE,149,0.0,2.1,47,0.00,,,0.00,30.06,,2013-07-11 01:41:00,
2013-07-10 20:51:00,75.6,-99.9,30.01,SE,137,0.0,0.0,50,0.00,,,0.00,24.48,,2013-07-11 01:51:00,
2013-07-10 21:01:00,74.7,-99.9,30.01,SE,133,0.0,0.0,52,0.00,,,0.00,18.31,,2013-07-11 02:01:00,
2013-07-10 21:11:00,73.7,-99.9,30.01,South,174,0.0,0.0,55,0.00,,,0.00,11.92,,2013-07-11 02:11:00,
2013-07-10 21:21:00,72.0,-99.9,30.01,SSE,163,0.0,0.0,58,0.00,,,0.00,6.394,,2013-07-11 02:21:00,
2013-07-10 21:31:00,70.7,-99.9,30.01,South,187,0.0,0.0,64,0.00,,,0.00,3.109,,2013-07-11 02:31:00,
2013-07-10 21:41:00,69.5,-99.9,30.01,SSW,212,0.0,0.0,70,0.00,,,0.00,1.225,,2013-07-11 02:41:00,
2013-07-10 21:51:00,68.6,-99.9,30.02,SW,218,0.0,0.0,72,0.00,,,0.00,0.406,,2013-07-11 02:51:00,
2013-07-10 22:01:00,68.1,-99.9,30.02,SW,233,0.0,0.0,73,0.00,,,0.00,0,,2013-07-11 03:01:00,
2013-07-10 22:11:00,67.7,-99.9,30.02,WSW,239,0.0,0.0,73,0.00,,,0.00,0,,2013-07-11 03:11:00,
2013-07-10 22:21:00,67.1,-99.9,30.02,SW,236,0.0,0.0,74,0.00,,,0.00,0,,2013-07-11 03:21:00,
2013-07-10 22:31:00,67.0,-99.9,30.02,WSW,239,0.0,0.0,73,0.00,,,0.00,0,,2013-07-11 03:31:00,
2013-07-10 22:41:00,66.3,-99.9,30.02,WSW,246,0.0,0.0,74,0.00,,,0.00,0,,2013-07-11 03:41:00,
2013-07-10 22:51:00,65.7,-99.9,30.02,SE,143,0.0,0.0,74,0.00,,,0.00,0,,2013-07-11 03:51:00,
2013-07-10 23:11:00,65.1,-99.9,30.03,South,186,0.0,0.0,75,0.00,,,0.00,0,,2013-07-11 04:11:00,
2013-07-10 23:21:00,64.8,-99.9,30.03,SSW,209,0.0,0.0,76,0.00,,,0.00,0,,2013-07-11 04:21:00,
2013-07-10 23:31:00,64.5,-99.9,30.03,WSW,237,0.0,0.0,77,0.00,,,0.00,0,,2013-07-11 04:31:00,
2013-07-10 23:41:00,63.5,-99.9,30.03,SW,225,0.0,0.0,82,0.00,,,0.00,0,,2013-07-11 04:41:00,
2013-07-10 23:51:00,63.0,-99.9,30.03,WSW,237,0.0,0.0,83,0.00,,,0.00,0,,2013-07-11 04:51:00,